OBJECT J, 43839

Orbit data source: Space-Track

You're viewing an Uncataloged Satellite

Recently launched and/or uncataloged satellites may have evolving metadata. Metadata may include but not limited to: Owner, Maufacturer, Bus, Motor, and Mission.

OBJECT J, 43839 is a satellite in LEO that was launched on Fri, 07 Dec 2018 UTC via a CHANG ZHENG 2D launch vehicle from the Jiuquan Satellite Launch Center, China (JSC). Unknown objects in Earth's orbit typically refer to objects detected orbiting the Earth but have not yet been identified or cataloged. These objects could be anything from previously untracked satellites, spent rocket stages, debris from satellite collisions, or even natural meteoroids temporarily captured by Earth's gravity.

Loading next visibility...
OBJECT J details
Identifier
43839, 2018-102J
Orbit
LEO
Last TLE update7 hours ago
Origin
Flag of TBDBTWK/LUHAN (TBD)
ManufacturerJiutian
MissionCommercial Communications
Bus & MotorCUBESAT 3U?, Unknown motor
Mass5 kg wet, 5 kg dry
Launch date (UTC)
2018-12-07 (6 years ago)
Launch vehicle
CHANG ZHENG 2D
Launch site
Jiuquan Satellite Launch Center, China (JSC)
Object typeUnknown
Shape & HBRBox, 0.3 m
Radar Cross Section0.035 m², Medium (>0.1 m² and < 1m²)

Expand to show TLE details & history

TLE from 7 hours ago
0 OBJECT J
1 43839U 18102J   24340.15103191  .00187922  00000-0  16977-2 0  9994
2 43839  97.4363  69.2946 0007822 261.3128  98.7247 15.67497495331875
Epoch: 2024-12-05T03:37Z
Definitive object data (Epoch: 2024-12-05T03:37:29.157Z)
Latitude0.00003°
Longitude-59.51284°
Altitude370.023 km
Speed7.687 km/s
True Right ascension04h 37m 10s
True Declination0° 00' 00"
Sunlit
Object was in full shadow at TLE epoch
Visualization TLE readout
Latitude64.04206°
Longitude136.2417°
Altitude381.194 km
Speed7.685 km/s
Apparent Right ascension19h 16m 00s
Apparent Declination14° 53' 32"
Sunlit
Object is in daylight
Visualization observer readout
Local Sidereal Time08:12:55
Azimuth16.574° NNE
Elevation-33.612°
Doppler factor1
Orbital elements
Apogee altitude368.243 km
Perigee altitude357.697 km
Semi-major axis6,741.107 km
Eccentricity0.0007822
Inclination97.4363°
RAAN69.2946°
Arg. of periapsis261.3128°
True anomaly98.81328°
Mean anomaly98.7247°
Eccentric anomaly98.76899°
Mean motion3.92145 °/min
BSTAR0.0016977
Orbital period91.8 mins
Loading maneuver chart data...
Loading historical data...
Loading historical data...
Loading historical data...
Loading historical data...
Loading historical data...
Loading historical data...
Loading historical data...

OBJECT J Visibility forecast

Observer location: undefined°, undefined

Span
Click to sort rows by Start time (UTC) header in descending order
Start Az.
Max El. time (UTC)
Max El. Az.
Max El.
End time (UTC)
End Az.
5 mins2024-12-05 19:29:33.729Z349.28° N2024-12-05 19:31:33.729Z306.87° NW25.308°2024-12-05 19:34:33.729Z223.613° SW
|